This demonstration page uses our WeatherBlox Daily Observations layout. Learn more.

39.29038, -76.61219

Hourly Observations for October 15, 2019

Temp ( °F °C ) Dew Point ( °F °C ) Humidity (%) Winds ( mph kmh ) Pressure ( in mb ) Visibility ( mi km ) Precip ( " mm )
12:54 am 00:54 undefined 60 15.6 42 5.6 52 52 undefined N/A 30.06 1018 N/A 0 0
1:54 am 01:54 undefined 59 15 42 5.6 54 54 undefined N/A 30.09 1019 N/A 0 0
2:54 am 02:54 undefined 57 13.9 42 5.6 58 58 undefined N/A 30.09 1019 N/A 0 0
3:54 am 03:54 undefined 55 12.8 43 6.1 64 64 undefined N/A 30.09 1019 N/A 0 0
4:54 am 04:54 undefined 54 12.2 42 5.6 64 64 undefined N/A 30.12 1020 N/A 0 0
5:54 am 05:54 undefined 53 11.7 42 5.6 66 66 undefined N/A 30.12 1020 N/A 0 0
6:54 am 06:54 undefined 54 12.2 42 5.6 64 64 undefined N/A 30.15 1021 N/A 0 0
7:54 am 07:54 undefined 56 13.3 42 5.6 60 60 undefined N/A 30.15 1021 N/A 0 0
8:54 am 08:54 undefined 57 13.9 42 5.6 58 58 undefined N/A 30.18 1022 N/A 0 0
9:54 am 09:54 undefined 60 15.6 44 6.7 56 56 undefined N/A 30.18 1022 N/A 0 0
10:54 am 10:54 undefined 64 17.8 44 6.7 48 48 undefined N/A 30.18 1022 N/A 0 0
11:54 am 11:54 undefined 65 18.3 46 7.8 51 51 undefined N/A 30.15 1021 N/A 0 0
12:54 pm 12:54 undefined 68 20 45 7.2 44 44 undefined N/A 30.15 1021 N/A 0 0
1:54 pm 13:54 undefined 71 21.7 41 5 34 34 undefined N/A 30.12 1020 N/A 0 0
2:54 pm 14:54 undefined 69 20.6 41 5 36 36 undefined N/A 30.09 1019 N/A 0 0
3:54 pm 15:54 undefined 67 19.4 41 5 39 39 undefined N/A 30.09 1019 N/A 0 0
4:54 pm 16:54 undefined 66 18.9 39 3.9 37 37 undefined N/A 30.06 1018 N/A 0 0
5:54 pm 17:54 undefined 65 18.3 40 4.4 40 40 undefined N/A 30.06 1018 N/A 0 0
6:54 pm 18:54 undefined 64 17.8 42 5.6 45 45 undefined N/A 30.03 1017 N/A 0 0
7:54 pm 19:54 undefined 63 17.2 43 6.1 48 48 undefined N/A 30.03 1017 N/A 0 0
8:54 pm 20:54 undefined 63 17.2 46 7.8 54 54 undefined N/A 30.03 1017 N/A 0 0
9:54 pm 21:54 undefined 61 16.1 49 9.4 65 65 undefined N/A 30.03 1017 N/A 0 0
10:54 pm 22:54 undefined 61 16.1 52 11.1 72 72 undefined N/A 30.03 1017 N/A 0 0
11:54 pm 23:54 undefined 59 15 53 11.7 81 81 undefined N/A 30 1016 N/A 0 0

Powered by AerisWeather